Home > Weather > Panama City > Past weeks

Flag for USA Weather for the Past 2 Weeks in Panama City, Florida, USA

Now
77 °F

Sunny.


Feels Like: 78 °F
Forecast: 56 / 75 °F
Wind: 14 mph from North

Location: Tyndall Air Force Base

Current Time: May 6, 2016 at 4:25:00 PM

Latest Report: May 6, 2016 at 4:04 PM


Visibility: 10 mi

Pressure: 29.90 "Hg

Humidity: 30%

Dew Point: 43 °F

Location of Panama CityLocation

Historic Weather in Panama City — Graph

°F

Panama City Temperature Yesterday

Maximum temperature yesterday: 77 °F (at 3:58 PM)
Minimum temperature yesterday: 61 °F (at 11:58 PM)
Average temperature yesterday: 69 °F

High & Low Weather Summary for the Past Weeks

 TemperatureHumidityPressure
High86 °F (Apr 30, 12:58 PM)100% (Apr 22, 5:58 AM)30.04 "Hg (Apr 22, 5:58 AM)
Low37 °F (Apr 29, 11:03 PM)27% (May 5, 4:58 PM)29.75 "Hg (May 4, 3:58 PM)
Average72 °F79%29.94 "Hg
* Reported Apr 21 2:57 PM — May 6 2:58 PM, Panama City, Weather by CustomWeather, © 2016

Note: Actual official high and low records may vary slightly from our data, if they occured in-between our weather recording intervals... More about our weather records

Advertising

Panama City Weather History for the Previous 24 Hours

Scroll right to see more
 ConditionsComfort  
Time TempWeatherWind HumidityBarometerVisibility
2:58 PM
Fri, May 6
76 °FSunny.8 mph31%29.92 "Hg10 mi
1:58 PM74 °FSunny.10 mph34%29.95 "Hg10 mi
12:58 PM72 °FPassing clouds.14 mph38%29.95 "Hg10 mi
11:58 AM70 °FSunny.12 mph41%29.97 "Hg10 mi
10:58 AM67 °FSunny.9 mph44%29.98 "Hg10 mi
9:58 AM64 °FSunny.9 mph48%30.00 "Hg10 mi
8:58 AM62 °FSunny.10 mph52%29.99 "Hg10 mi
7:58 AM60 °FSunny.12 mph54%29.99 "Hg10 mi
6:58 AM57 °FSunny.7 mph67%29.97 "Hg10 mi
5:58 AM54 °FSunny.6 mph72%29.94 "Hg10 mi
4:58 AM57 °FClear.8 mph66%29.93 "Hg10 mi
3:58 AM58 °FClear.8 mph61%29.91 "Hg10 mi
2:58 AM62 °FClear.10 mph51%29.90 "Hg10 mi
1:58 AM64 °FClear.7 mph47%29.88 "Hg10 mi
12:58 AM64 °FClear.8 mph51%29.89 "Hg10 mi
11:58 PM
Thu, May 5
61 °FClear.7 mph58%29.89 "Hg10 mi
10:58 PM61 °FClear.5 mph54%29.89 "Hg10 mi
9:58 PM64 °FClear.5 mph44%29.89 "Hg10 mi
8:58 PM67 °FClear.8 mph37%29.87 "Hg10 mi
7:58 PM69 °FClear.9 mph33%29.84 "Hg10 mi
6:58 PM72 °FSunny.12 mph29%29.81 "Hg10 mi
5:58 PM75 °FSunny.10 mph27%29.79 "Hg10 mi
4:58 PM76 °FSunny.12 mph27%29.79 "Hg10 mi
Weather by CustomWeather, © 2016

See weather overviewHow to use our weather pages